ITY1634 LIBR-LIRF

Flight info

Callsign ITY1634
Flight time 0h 52m
Altitude 30000
Route FASAN M742 LUXIL DCT TOPNO DCT EKTOL DCT AMSOR DCT IPKAM DCT TEA DCT SIPRO Z803 LAT
Aircraft A20N/M-SDE2E3FGHIRWXY/LB1

Departure

Time 2026-05-07 07:53
Airport Brindisi Airport (LIBR)

Arrival

Time 2026-05-07 08:46
Airport Rome–Fiumicino Leonardo da Vinci International Airport (LIRF)
Time Latitude Longitude Altitude Speed Heading
2026-05-07 07:19 40.65758 17.94019 42 ft 0 kts 322°
2026-05-07 07:43 40.65748 17.94029 41 ft 2 kts 320°
2026-05-07 07:43 40.65736 17.94041 41 ft 2 kts 322°
2026-05-07 07:43 40.65725 17.94054 41 ft 2 kts 321°
2026-05-07 07:44 40.65713 17.94066 41 ft 2 kts 322°
2026-05-07 07:44 40.65701 17.94078 41 ft 2 kts 321°
2026-05-07 07:44 40.65689 17.94091 41 ft 2 kts 321°
2026-05-07 07:44 40.65682 17.94099 41 ft 0 kts 321°
2026-05-07 07:45 40.65678 17.94101 41 ft 0 kts 22°
2026-05-07 07:45 40.65675 17.94099 41 ft 0 kts 60°
2026-05-07 07:45 40.65671 17.94092 41 ft 0 kts 52°
2026-05-07 07:48 40.65681 17.94107 41 ft 4 kts 52°
2026-05-07 07:48 40.65713 17.94163 40 ft 10 kts 52°
2026-05-07 07:48 40.65768 17.94258 39 ft 15 kts 52°
2026-05-07 07:48 40.65842 17.94383 36 ft 19 kts 52°
2026-05-07 07:49 40.65931 17.94539 34 ft 22 kts 53°
2026-05-07 07:49 40.66027 17.94704 32 ft 22 kts 76°
2026-05-07 07:49 40.65940 17.94859 31 ft 21 kts 138°
2026-05-07 07:49 40.65831 17.94992 31 ft 21 kts 136°
2026-05-07 07:50 40.65749 17.95094 30 ft 3 kts 138°
2026-05-07 07:50 40.65748 17.95095 30 ft 0 kts 137°
2026-05-07 07:51 40.65745 17.95100 30 ft 2 kts 137°
2026-05-07 07:51 40.65713 17.95134 30 ft 10 kts 146°
2026-05-07 07:51 40.65630 17.95113 31 ft 15 kts 232°
2026-05-07 07:52 40.65599 17.94989 32 ft 14 kts 287°
2026-05-07 07:52 40.65668 17.94888 33 ft 15 kts 318°
2026-05-07 07:52 40.65693 17.94858 33 ft 0 kts 317°
2026-05-07 07:52 40.65804 17.94721 34 ft 59 kts 317°
2026-05-07 07:53 40.66291 17.94123 34 ft 129 kts 317°
2026-05-07 07:53 40.67086 17.93157 160 ft 171 kts 317°
2026-05-07 07:53 40.68023 17.92076 526 ft 192 kts 317°
2026-05-07 07:53 40.69038 17.90809 1094 ft 207 kts 313°
2026-05-07 07:54 40.70061 17.89447 1762 ft 216 kts 313°
2026-05-07 07:54 40.71126 17.88041 2466 ft 221 kts 314°
2026-05-07 07:54 40.72304 17.86624 2909 ft 242 kts 316°
2026-05-07 07:54 40.73623 17.85100 3399 ft 262 kts 316°
2026-05-07 07:55 40.75011 17.83467 3985 ft 277 kts 315°
2026-05-07 07:55 40.76374 17.81661 4573 ft 276 kts 301°
2026-05-07 07:55 40.76976 17.79351 4993 ft 270 kts 267°
2026-05-07 07:55 40.76816 17.76925 5957 ft 268 kts 262°
2026-05-07 07:56 40.76666 17.74506 6976 ft 266 kts 264°
2026-05-07 07:56 40.76555 17.72110 7895 ft 267 kts 265°
2026-05-07 07:56 40.76458 17.69679 8817 ft 268 kts 266°
2026-05-07 07:56 40.76680 17.67287 9687 ft 272 kts 288°
2026-05-07 07:57 40.77495 17.65042 10562 ft 275 kts 295°
2026-05-07 07:57 40.78448 17.62789 11052 ft 290 kts 296°
2026-05-07 07:57 40.79453 17.60389 11423 ft 308 kts 295°
2026-05-07 07:57 40.80483 17.57859 11753 ft 325 kts 295°
2026-05-07 07:58 40.81565 17.55140 12070 ft 343 kts 295°
2026-05-07 07:58 40.82691 17.52273 12438 ft 357 kts 295°
2026-05-07 07:58 40.83835 17.49349 13070 ft 362 kts 295°
2026-05-07 07:58 40.84975 17.46414 13791 ft 364 kts 293°
2026-05-07 07:59 40.85815 17.43284 14438 ft 364 kts 281°
2026-05-07 07:59 40.86122 17.39993 15070 ft 365 kts 270°
2026-05-07 07:59 40.85964 17.36621 15671 ft 369 kts 264°
2026-05-07 07:59 40.85698 17.33278 16260 ft 373 kts 263°
2026-05-07 08:00 40.85418 17.29873 16831 ft 377 kts 262°
2026-05-07 08:00 40.85137 17.26433 17412 ft 380 kts 263°
2026-05-07 08:00 40.84855 17.22960 17966 ft 384 kts 263°
2026-05-07 08:00 40.84571 17.19430 18502 ft 388 kts 262°
2026-05-07 08:01 40.84285 17.15891 19031 ft 392 kts 262°
2026-05-07 08:01 40.83995 17.12284 19578 ft 396 kts 262°
2026-05-07 08:01 40.83707 17.08729 20123 ft 398 kts 262°
2026-05-07 08:01 40.83408 17.05065 20657 ft 401 kts 262°
2026-05-07 08:02 40.83109 17.01398 21182 ft 404 kts 262°
2026-05-07 08:02 40.82808 16.97735 21699 ft 407 kts 262°
2026-05-07 08:02 40.82503 16.94019 22203 ft 410 kts 262°
2026-05-07 08:02 40.82288 16.90289 22679 ft 414 kts 266°
2026-05-07 08:03 40.82365 16.86467 23145 ft 419 kts 272°
2026-05-07 08:03 40.82748 16.82661 23612 ft 424 kts 277°
2026-05-07 08:03 40.83371 16.78847 24080 ft 428 kts 280°
2026-05-07 08:03 40.84045 16.75023 24534 ft 431 kts 280°
2026-05-07 08:04 40.84740 16.71126 24972 ft 434 kts 280°
2026-05-07 08:04 40.85425 16.67273 25377 ft 437 kts 280°
2026-05-07 08:04 40.86112 16.63382 25789 ft 439 kts 280°
2026-05-07 08:04 40.86801 16.59462 26189 ft 441 kts 280°
2026-05-07 08:05 40.87493 16.55504 26531 ft 444 kts 280°
2026-05-07 08:05 40.88183 16.51549 26883 ft 446 kts 280°
2026-05-07 08:05 40.88875 16.47570 27329 ft 445 kts 280°
2026-05-07 08:05 40.89565 16.43602 27855 ft 442 kts 280°
2026-05-07 08:06 40.90247 16.39649 28316 ft 441 kts 281°
2026-05-07 08:06 40.90919 16.35750 28675 ft 442 kts 280°
2026-05-07 08:06 40.91604 16.31771 29000 ft 443 kts 280°
2026-05-07 08:06 40.92274 16.27848 29281 ft 444 kts 280°
2026-05-07 08:07 40.92954 16.23873 29611 ft 444 kts 280°
2026-05-07 08:07 40.93636 16.19883 29897 ft 445 kts 280°
2026-05-07 08:07 40.94310 16.15923 30007 ft 447 kts 280°
2026-05-07 08:08 40.95676 16.07916 30002 ft 446 kts 280°
2026-05-07 08:08 40.97041 15.99935 30014 ft 446 kts 281°
2026-05-07 08:09 40.98396 15.91972 30015 ft 445 kts 281°
2026-05-07 08:09 40.99743 15.84015 30016 ft 446 kts 281°
2026-05-07 08:10 41.01084 15.76039 30014 ft 446 kts 281°
2026-05-07 08:10 41.02422 15.68032 30017 ft 444 kts 281°
2026-05-07 08:11 41.03746 15.60079 30020 ft 444 kts 281°
2026-05-07 08:11 41.05072 15.52085 30013 ft 444 kts 281°
2026-05-07 08:12 41.06383 15.44167 30016 ft 444 kts 281°
2026-05-07 08:12 41.07700 15.36154 30020 ft 444 kts 281°
2026-05-07 08:13 41.08997 15.28193 30034 ft 443 kts 280°
2026-05-07 08:13 41.10283 15.20282 30035 ft 443 kts 280°
2026-05-07 08:14 41.11620 15.12274 30032 ft 443 kts 280°
2026-05-07 08:14 41.12934 15.04349 30032 ft 442 kts 280°
2026-05-07 08:15 41.14227 14.96410 30036 ft 442 kts 281°
2026-05-07 08:15 41.15523 14.88457 30033 ft 442 kts 280°
2026-05-07 08:16 41.16790 14.80491 30017 ft 442 kts 280°
2026-05-07 08:16 41.18024 14.72508 30010 ft 442 kts 280°
2026-05-07 08:17 41.19261 14.64515 30017 ft 442 kts 280°
2026-05-07 08:17 41.20524 14.56583 30023 ft 442 kts 281°
2026-05-07 08:18 41.21793 14.48575 30018 ft 442 kts 280°
2026-05-07 08:18 41.23036 14.40645 30017 ft 441 kts 280°
2026-05-07 08:19 41.24269 14.32699 30022 ft 441 kts 279°
2026-05-07 08:19 41.25501 14.24710 30027 ft 440 kts 279°
2026-05-07 08:20 41.26718 14.16761 30021 ft 440 kts 279°
2026-05-07 08:20 41.27930 14.08828 30037 ft 442 kts 279°
2026-05-07 08:21 41.29378 14.00929 30030 ft 444 kts 286°
2026-05-07 08:21 41.31852 13.93396 30029 ft 448 kts 296°
2026-05-07 08:22 41.35225 13.86393 29673 ft 452 kts 301°
2026-05-07 08:22 41.36972 13.83000 28873 ft 444 kts 301°
2026-05-07 08:22 41.38703 13.79651 27631 ft 437 kts 301°
2026-05-07 08:22 41.40419 13.76318 26629 ft 443 kts 301°
2026-05-07 08:23 41.42145 13.72944 25970 ft 443 kts 300°
2026-05-07 08:23 41.43619 13.69446 25404 ft 437 kts 292°
2026-05-07 08:23 41.44740 13.65684 24812 ft 432 kts 285°
2026-05-07 08:23 41.45467 13.61844 24233 ft 427 kts 278°
2026-05-07 08:24 41.45981 13.58032 23666 ft 424 kts 277°
2026-05-07 08:24 41.46460 13.54181 23101 ft 422 kts 277°
2026-05-07 08:24 41.46935 13.50328 22550 ft 418 kts 277°
2026-05-07 08:24 41.47404 13.46533 22008 ft 414 kts 277°
2026-05-07 08:25 41.47872 13.42777 21467 ft 410 kts 277°
2026-05-07 08:25 41.48337 13.39067 20944 ft 407 kts 277°
2026-05-07 08:25 41.48795 13.35390 20399 ft 404 kts 277°
2026-05-07 08:25 41.49250 13.31728 19866 ft 400 kts 276°
2026-05-07 08:26 41.50150 13.24462 18777 ft 394 kts 276°
2026-05-07 08:26 41.50594 13.20868 18229 ft 390 kts 276°
2026-05-07 08:26 41.51028 13.17365 17710 ft 387 kts 276°
2026-05-07 08:27 41.51461 13.13836 17168 ft 384 kts 276°
2026-05-07 08:27 41.51891 13.10325 16780 ft 380 kts 276°
2026-05-07 08:27 41.52314 13.06864 16622 ft 381 kts 276°
2026-05-07 08:27 41.52737 13.03392 16453 ft 380 kts 276°
2026-05-07 08:28 41.53154 12.99967 16303 ft 379 kts 276°
2026-05-07 08:28 41.53578 12.96482 16167 ft 378 kts 276°
2026-05-07 08:28 41.54099 12.93054 16035 ft 380 kts 284°
2026-05-07 08:28 41.55262 12.89924 15674 ft 379 kts 302°
2026-05-07 08:29 41.57053 12.87409 15165 ft 366 kts 315°
2026-05-07 08:29 41.58913 12.85272 14743 ft 347 kts 315°
2026-05-07 08:29 41.60724 12.83195 14410 ft 343 kts 315°
2026-05-07 08:29 41.62524 12.81115 14141 ft 341 kts 315°
2026-05-07 08:30 41.64319 12.79034 13746 ft 337 kts 315°
2026-05-07 08:30 41.66058 12.77007 13281 ft 335 kts 315°
2026-05-07 08:30 41.67806 12.74967 12954 ft 334 kts 315°
2026-05-07 08:30 41.69566 12.72909 12753 ft 333 kts 315°
2026-05-07 08:31 41.71275 12.70910 12468 ft 326 kts 316°
2026-05-07 08:31 41.72969 12.68929 11919 ft 316 kts 316°
2026-05-07 08:31 41.74622 12.66991 11502 ft 314 kts 316°
2026-05-07 08:31 41.76236 12.65095 11124 ft 310 kts 316°
2026-05-07 08:32 41.77837 12.63215 10743 ft 300 kts 316°
2026-05-07 08:32 41.79401 12.61376 10425 ft 297 kts 316°
2026-05-07 08:32 41.80921 12.59589 10022 ft 289 kts 316°
2026-05-07 08:32 41.82401 12.57847 9740 ft 282 kts 316°
2026-05-07 08:33 41.83892 12.56092 9467 ft 282 kts 316°
2026-05-07 08:33 41.85348 12.54376 9164 ft 281 kts 316°
2026-05-07 08:33 41.86802 12.52660 8846 ft 280 kts 316°
2026-05-07 08:33 41.88285 12.50909 8516 ft 280 kts 317°
2026-05-07 08:34 41.89739 12.49193 8199 ft 279 kts 317°
2026-05-07 08:34 41.91164 12.47512 7850 ft 272 kts 317°
2026-05-07 08:34 41.92545 12.45881 7568 ft 259 kts 317°
2026-05-07 08:34 41.93874 12.44310 7285 ft 246 kts 317°
2026-05-07 08:35 41.95121 12.42835 7016 ft 234 kts 317°
2026-05-07 08:35 41.96330 12.41399 6762 ft 232 kts 317°
2026-05-07 08:35 41.97533 12.39970 6514 ft 232 kts 317°
2026-05-07 08:35 41.98749 12.38526 6243 ft 232 kts 317°
2026-05-07 08:36 41.99948 12.37103 5984 ft 231 kts 317°
2026-05-07 08:36 42.01146 12.35682 5730 ft 230 kts 318°
2026-05-07 08:36 42.02339 12.34266 5520 ft 225 kts 316°
2026-05-07 08:36 42.03486 12.32892 5329 ft 219 kts 317°
2026-05-07 08:37 42.04618 12.31535 5080 ft 217 kts 316°
2026-05-07 08:37 42.05744 12.30188 4804 ft 216 kts 318°
2026-05-07 08:37 42.07004 12.29087 4556 ft 216 kts 334°
2026-05-07 08:37 42.08399 12.28316 4364 ft 217 kts 341°
2026-05-07 08:38 42.09838 12.27713 4173 ft 217 kts 343°
2026-05-07 08:38 42.11286 12.27154 4027 ft 216 kts 343°
2026-05-07 08:38 42.12642 12.26323 3996 ft 214 kts 316°
2026-05-07 08:38 42.13582 12.24803 4021 ft 213 kts 302°
2026-05-07 08:39 42.14380 12.23104 4013 ft 213 kts 300°
2026-05-07 08:39 42.14948 12.21313 3993 ft 208 kts 275°
2026-05-07 08:39 42.14762 12.19413 3999 ft 204 kts 240°
2026-05-07 08:39 42.13823 12.18052 4004 ft 202 kts 205°
2026-05-07 08:40 42.12461 12.17661 3947 ft 203 kts 176°
2026-05-07 08:40 42.11039 12.17731 3748 ft 205 kts 186°
2026-05-07 08:40 42.09647 12.17436 3498 ft 203 kts 189°
2026-05-07 08:40 42.08260 12.17187 3144 ft 203 kts 183°
2026-05-07 08:41 42.06849 12.17156 3011 ft 202 kts 174°
2026-05-07 08:41 42.05447 12.17447 3015 ft 203 kts 165°
2026-05-07 08:41 42.04072 12.17954 2959 ft 204 kts 162°
2026-05-07 08:41 42.02729 12.18526 2698 ft 203 kts 161°
2026-05-07 08:42 42.01398 12.19104 2527 ft 201 kts 162°
2026-05-07 08:42 42.00052 12.19681 2515 ft 203 kts 162°
2026-05-07 08:42 41.98696 12.20254 2509 ft 203 kts 162°
2026-05-07 08:42 41.97354 12.20816 2490 ft 203 kts 162°
2026-05-07 08:43 41.96022 12.21372 2368 ft 191 kts 162°
2026-05-07 08:43 41.94801 12.21882 2088 ft 179 kts 162°
2026-05-07 08:43 41.93645 12.22364 1833 ft 169 kts 161°
2026-05-07 08:43 41.92551 12.22821 1619 ft 158 kts 161°
2026-05-07 08:44 41.91531 12.23247 1411 ft 153 kts 161°
2026-05-07 08:44 41.90517 12.23673 1217 ft 153 kts 161°
2026-05-07 08:44 41.89494 12.24100 1025 ft 153 kts 162°
2026-05-07 08:44 41.88480 12.24520 828 ft 152 kts 162°
2026-05-07 08:45 41.87505 12.24927 618 ft 142 kts 162°
2026-05-07 08:45 41.86570 12.25320 435 ft 140 kts 162°
2026-05-07 08:45 41.85636 12.25711 238 ft 139 kts 162°
2026-05-07 08:45 41.84713 12.26103 78 ft 138 kts 162°
2026-05-07 08:46 41.83805 12.26491 14 ft 130 kts 162°
2026-05-07 08:46 41.83094 12.26782 11 ft 83 kts 163°
2026-05-07 08:46 41.82705 12.26945 10 ft 39 kts 161°
2026-05-07 08:46 41.82474 12.27044 10 ft 30 kts 163°
2026-05-07 08:47 41.82288 12.27112 10 ft 25 kts 165°
2026-05-07 08:47 41.82115 12.27143 11 ft 25 kts 180°
2026-05-07 08:47 41.81944 12.27106 11 ft 25 kts 193°
2026-05-07 08:47 41.81773 12.27056 11 ft 25 kts 191°
2026-05-07 08:48 41.81605 12.27086 11 ft 24 kts 160°
2026-05-07 08:48 41.81443 12.27154 12 ft 24 kts 161°
2026-05-07 08:48 41.81284 12.27228 12 ft 24 kts 163°
2026-05-07 08:48 41.81121 12.27286 12 ft 24 kts 163°
2026-05-07 08:49 41.80959 12.27354 13 ft 24 kts 170°
2026-05-07 08:49 41.80793 12.27333 13 ft 24 kts 190°
2026-05-07 08:49 41.80653 12.27224 13 ft 23 kts 246°
2026-05-07 08:49 41.80596 12.27016 13 ft 23 kts 248°
2026-05-07 08:50 41.80537 12.26809 14 ft 23 kts 248°
2026-05-07 08:50 41.80478 12.26602 15 ft 23 kts 249°
2026-05-07 08:50 41.80423 12.26394 15 ft 23 kts 250°
2026-05-07 08:50 41.80366 12.26186 16 ft 23 kts 250°
2026-05-07 08:51 41.80305 12.25978 16 ft 23 kts 250°
2026-05-07 08:51 41.80250 12.25768 16 ft 24 kts 251°
2026-05-07 08:51 41.80193 12.25557 16 ft 24 kts 251°
2026-05-07 08:51 41.80116 12.25370 16 ft 21 kts 192°
2026-05-07 08:52 41.80035 12.25510 16 ft 21 kts 112°
2026-05-07 08:52 41.79971 12.25691 16 ft 21 kts 114°
2026-05-07 08:52 41.79907 12.25878 16 ft 21 kts 115°
2026-05-07 08:52 41.79842 12.25954 16 ft 13 kts 237°
2026-05-07 08:53 41.79802 12.25837 16 ft 14 kts 236°
2026-05-07 08:53 41.79721 12.25772 16 ft 9 kts 203°
2026-05-07 08:53 41.79678 12.25778 16 ft 7 kts 113°
2026-05-07 08:53 41.79667 12.25812 16 ft 0 kts 116°